Simultaneous Nadir Overpasses (SNOs) Predictions

Prediction of SNOs between METOP-B and TERRA Satellite Orbit:

Table of predicted SNOs for the next 14.0 days since TLE Epoch: 1/21/2017
Index Date (METOP-B) Time (METOP-B) Lat,Lon (METOP-B) SZA (METOP-B ) Date (TERRA) Time (TERRA) Lat,Lon (TERRA) SZA (TERRA ) Distance(km) Time Diff (sec)
1 01/23/2017 00:29:36 -81.29, 39.38 76.98 01/23/2017 00:29:56 -81.30, 39.50 76.95 2.12 20
2 01/23/2017 01:20:15 81.30,-152.69 103.09 01/23/2017 01:19:22 81.30,-152.74 103.06 0.90 53
3 01/25/2017 20:03:56 -81.30, 105.99 77.65 01/25/2017 20:04:13 -81.30, 105.98 77.65 0.28 17
4 01/25/2017 20:54:36 81.30, -86.46 102.37 01/25/2017 20:53:39 81.31, -86.27 102.37 3.21 57
5 01/28/2017 15:38:16 -81.30, 172.21 78.41 01/28/2017 15:38:31 -81.29, 172.28 78.40 1.16 15
6 01/
